[[{"header":{"parameterUnit":"m.s-1","parameterCategory":2,"la1":30.2991,"la2":30.254,"lo1":-89.0895,"lo2":-89.0444,"dy":0.0017,"dx":0.0017,"nx":28,"ny":28,"refTime":"2024-03-15T21:00:00:Z","depth":"0","parameterNumber":2,"parameterNumberName":"U-component_of_CURRENTS"},"data":[0,0,0,0,0,0,0,0,0,0,0,0,0,0,0,0,0,0,0,0,0,0,0,0,0,0,0,0,0,0,0,0,0,0,0,0,0,0,0,0,0,0,0,0,0,0,0,0,0,0,0,0,0,0,0,0,0,0,-0.2593,-0.2593,0,-0.264,-0.2641,-0.2642,-0.2724,-0.2726,-0.2727,-0.2728,-0.2781,-0.2781,-0.2782,0,0,0,0,0,0,0,0,0,0,0,0,0,-0.2598,-0.2598,-0.2593,-0.2593,-0.2593,-0.264,-0.2641,-0.2642,-0.2724,-0.2726,-0.2727,-0.2729,-0.2781,-0.2781,-0.2782,0,0,0,0,0,0,0,0,0,0,0,0,0,-0.2619,-0.2598,-0.2593,-0.2637,-0.2641,-0.264,-0.2641,-0.2642,-0.2724,-0.2726,-0.2728,-0.2729,-0.2781,-0.2781,-0.2782,-0.2748,0,0,-0.2783,-0.2783,0,0,0,0,0,0,0,0,-0.2618,-0.2619,-0.263,-0.2634,-0.2639,-0.2675,-0.2663,-0.2677,-0.2723,-0.2696,-0.2728,-0.273,-0.2742,-0.2746,-0.2756,-0.275,-0.2753,-0.2783,-0.2783,-0.2784,-0.2784,0,0,0,0,0,0,0,-0.2616,-0.2618,-0.2615,-0.263,-0.2636,-0.2663,-0.2668,-0.2666,-0.2712,-0.2699,-0.2704,-0.2703,-0.2746,-0.2756,-0.2758,-0.2754,-0.2783,-0.2784,-0.2784,-0.2784,-0.2649,-0.2646,0,0,0,0,0,0,-0.2599,-0.2616,-0.2614,-0.2616,-0.2628,-0.2661,-0.2667,-0.2665,-0.2712,-0.2719,-0.2701,-0.2707,-0.2754,-0.2757,-0.276,-0.2681,-0.2784,-0.2784,-0.2784,-0.2653,-0.2649,-0.2644,0,0,0,0,0,0,-0.2599,-0.2599,-0.2612,-0.2615,-0.2618,-0.2658,-0.2655,-0.2664,-0.2676,-0.2713,-0.2722,-0.2704,-0.2756,-0.276,-0.2732,-0.2686,-0.2784,-0.2785,-0.2658,-0.2652,-0.2646,-0.255,0,0,0,0,0,0,-0.2599,-0.2598,-0.2596,-0.2613,-0.2617,-0.2576,-0.2654,-0.2664,-0.2671,-0.2679,-0.2717,-0.2725,-0.2757,-0.2731,-0.2732,-0.2688,-0.2785,-0.2663,-0.2655,-0.2648,-0.2558,-0.2542,-0.2528,0,0,0,0,0,-0.2599,-0.2561,-0.2595,-0.2595,-0.2611,-0.2573,-0.2576,-0.2616,-0.2669,-0.2641,-0.2674,-0.2724,-0.2686,-0.2728,-0.2731,-0.2686,-0.2666,-0.2657,-0.2649,-0.2565,-0.2545,-0.2528,0,0,0,0,0,0,-0.2559,-0.2567,-0.2604,-0.2574,-0.2567,-0.2585,-0.256,-0.2605,-0.2612,-0.2623,-0.2684,-0.2689,-0.264,-0.2664,-0.271,-0.2618,-0.268,-0.2671,-0.2614,-0.2596,-0.2581,-0.2615,-0.2785,0,0,0,0,0,-0.2551,-0.252,-0.254,-0.2507,-0.25,-0.2537,-0.2534,-0.2557,-0.2566,-0.2574,-0.2599,-0.2613,-0.2603,-0.2604,-0.2589,-0.2551,-0.2574,-0.2515,-0.25,-0.2488,-0.2511,-0.2494,-0.2482,-0.2616,-0.2616,-0.2616,0,0,-0.2517,-0.2522,-0.2502,-0.2496,-0.2497,-0.2483,-0.2538,-0.2504,-0.2506,-0.2573,-0.2559,-0.2555,-0.2575,-0.2524,-0.2505,-0.2546,-0.2447,-0.2477,-0.2467,-0.2498,-0.2484,-0.2472,-0.2461,-0.261,-0.2611,-0.2612,0,0,-0.2434,-0.2443,-0.2402,-0.2399,-0.2394,-0.2412,-0.2401,-0.2409,-0.2419,-0.2397,-0.244,-0.2408,-0.2405,-0.2404,-0.2412,-0.23,-0.2359,-0.2284,-0.2254,-0.2235,-0.2226,-0.2218,-0.2186,-0.2177,-0.2288,-0.2288,-0.2288,0,-0.24,-0.2382,-0.2377,-0.2357,-0.236,-0.2382,-0.2364,-0.2361,-0.2361,-0.2366,-0.2371,-0.2354,-0.2351,-0.2329,-0.2284,-0.227,-0.2275,-0.233,-0.2221,-0.2214,-0.2207,-0.2178,-0.2169,-0.2282,-0.2283,-0.2284,-0.2284,0,-0.2314,-0.2312,-0.2272,-0.2275,-0.2265,-0.2229,-0.2245,-0.2227,-0.2247,-0.2266,-0.2226,-0.221,-0.2219,-0.2181,-0.2208,-0.2153,-0.2171,-0.2197,-0.2282,-0.2189,-0.2162,-0.2154,-0.2274,-0.2276,-0.2278,-0.2279,0,0,-0.2205,-0.2217,-0.221,-0.223,-0.223,-0.2212,-0.219,-0.2189,-0.2202,-0.2165,-0.2175,-0.2113,-0.2123,-0.2128,-0.213,-0.2107,-0.2029,-0.2137,-0.2138,-0.2132,-0.1984,-0.1877,-0.1859,-0.205,-0.2049,-0.2048,-0.1968,0,-0.215,-0.2128,-0.2145,-0.2127,-0.2124,-0.215,-0.214,-0.2142,-0.2144,-0.2141,-0.212,-0.211,-0.21,-0.2097,-0.2065,-0.2059,-0.2012,-0.2049,-0.2055,-0.2054,-0.1992,-0.1847,-0.1773,-0.1687,-0.1962,-0.196,-0.1959,0,-0.2078,-0.2084,-0.2069,-0.2107,-0.2105,-0.2098,-0.2115,-0.2109,-0.2111,-0.2114,-0.2104,-0.2108,-0.2069,-0.2067,-0.2006,-0.2038,-0.1998,-0.1978,-0.1975,-0.1918,-0.1933,-0.1829,-0.1664,-0.1661,-0.1948,-0.1949,-0.195,0,-0.2029,-0.2035,-0.2035,-0.2042,-0.2071,-0.2072,-0.2086,-0.2096,-0.2096,-0.2105,-0.2105,-0.2084,-0.206,-0.2028,-0.1964,-0.1999,-0.1889,-0.1936,-0.1791,-0.1784,-0.1745,-0.1735,-0.1607,-0.1867,-0.1867,-0.1867,-0.1867,0,-0.1977,-0.1973,-0.2016,-0.2013,-0.2012,-0.2048,-0.2044,-0.2059,-0.2076,-0.2071,-0.2089,-0.2068,-0.205,-0.199,-0.1954,-0.1823,-0.1871,-0.1758,-0.1744,-0.1698,-0.1685,-0.1705,-0.1753,-0.1864,-0.1865,-0.1865,-0.1866,0,-0.1909,-0.1941,-0.1942,-0.1978,-0.1987,-0.1984,-0.2013,-0.2012,-0.2043,-0.2039,-0.2041,-0.2037,-0.1959,-0.1905,-0.1831,-0.1778,-0.1656,-0.163,-0.1561,-0.1538,-0.1415,-0.1461,-0.1364,-0.1322,-0.148,-0.1476,-0.1473,0,-0.1869,-0.1864,-0.1899,-0.1898,-0.1908,-0.1919,-0.1923,-0.1974,-0.1986,-0.2008,-0.2001,-0.1935,-0.1854,-0.169,-0.1587,-0.1463,-0.1499,-0.1332,-0.1369,-0.1358,-0.1402,-0.1456,-0.1435,-0.1271,-0.1267,-0.1264,-0.1261,0,-0.1784,-0.18,-0.1805,-0.1811,-0.1818,-0.1837,-0.1862,-0.1878,-0.1938,-0.1915,-0.1881,-0.1817,-0.1653,-0.1478,-0.1308,-0.1242,-0.1312,-0.1255,-0.1271,-0.123,-0.1257,-0.1228,-0.138,-0.123,-0.1233,-0.1235,-0.1237,-0.1238,-0.1708,-0.1692,-0.1706,-0.1712,-0.1739,-0.1776,-0.1722,-0.1758,-0.1749,-0.1672,-0.1738,-0.1558,-0.1437,-0.118,-0.1099,-0.0959,-0.1052,-0.0952,-0.1008,-0.1063,-0.1012,-0.1067,-0.0886,-0.0887,-0.0888,-0.0889,-0.089,0,-0.1592,-0.1601,-0.1603,-0.164,-0.1668,-0.1679,-0.1677,-0.1577,-0.1498,-0.1428,-0.1336,-0.1209,-0.1062,-0.0954,-0.0822,-0.0754,-0.0769,-0.0747,-0.0841,-0.083,-0.089,-0.0868,-0.0638,-0.0638,-0.0638,-0.0638,-0.0638,-0.0638,-0.1527,-0.149,-0.1512,-0.1556,-0.1579,-0.1476,-0.1419,-0.1274,-0.1146,-0.0928,-0.0781,-0.0727,-0.0776,-0.0839,-0.076,-0.0709,-0.0733,-0.069,-0.0731,-0.0823,-0.0849,-0.0874,-0.0861,-0.0634,-0.0634,-0.0636,-0.0636,-0.0637]},{"header":{"parameterUnit":"m.s-1","parameterCategory":2,"la1":30.2991,"la2":30.254,"lo1":-89.0895,"lo2":-89.0444,"dy":0.0017,"dx":0.0017,"nx":28,"ny":28,"refTime":"2024-03-15T21:00:00:Z","depth":"0","parameterNumber":3,"parameterNumberName":"V-component_of_CURRENTS"},"data":[0,0,0,0,0,0,0,0,0,0,0,0,0,0,0,0,0,0,0,0,0,0,0,0,0,0,0,0,0,0,0,0,0,0,0,0,0,0,0,0,0,0,0,0,0,0,0,0,0,0,0,0,0,0,0,0,0,0,-0.0471,-0.047,0,-0.0365,-0.0364,-0.0363,-0.0281,-0.0281,-0.028,-0.0279,-0.0085,-0.008,-0.0076,0,0,0,0,0,0,0,0,0,0,0,0,0,-0.0573,-0.0572,-0.0471,-0.047,-0.0468,-0.0365,-0.0364,-0.0362,-0.0281,-0.0281,-0.028,-0.0279,-0.0086,-0.0081,-0.0076,0,0,0,0,0,0,0,0,0,0,0,0,0,-0.0504,-0.0572,-0.0471,-0.0416,-0.041,-0.0366,-0.0364,-0.0362,-0.0282,-0.028,-0.0279,-0.0279,-0.0088,-0.0081,-0.0075,-0.0053,0,0,-0.0054,-0.0051,0,0,0,0,0,0,0,0,-0.0508,-0.05,-0.0426,-0.042,-0.0413,-0.0336,-0.0329,-0.0254,-0.0282,-0.0329,-0.0279,-0.0278,-0.0162,-0.0149,-0.0131,-0.0044,-0.0035,-0.0053,-0.0049,-0.0046,-0.0044,0,0,0,0,0,0,0,-0.0513,-0.0504,-0.0428,-0.0424,-0.0417,-0.0387,-0.0376,-0.0314,-0.025,-0.0325,-0.0319,-0.031,-0.0158,-0.0138,-0.0126,-0.0032,-0.0053,-0.0047,-0.0043,-0.0041,0.006,0.0058,0,0,0,0,0,0,-0.053,-0.0508,-0.0431,-0.0425,-0.046,-0.0386,-0.0374,-0.0361,-0.0253,-0.0236,-0.031,-0.0306,-0.015,-0.0134,-0.0119,-0.0098,-0.0046,-0.004,-0.0036,0.0061,0.0059,0.0058,0,0,0,0,0,0,-0.0533,-0.0524,-0.0435,-0.0465,-0.0452,-0.0386,-0.0372,-0.036,-0.0339,-0.0243,-0.0224,-0.0303,-0.0149,-0.0128,-0.0085,-0.009,-0.0037,-0.0031,0.0063,0.0061,0.0059,-0.005,0,0,0,0,0,0,-0.0536,-0.0526,-0.0524,-0.0466,-0.0451,-0.0419,-0.0373,-0.0358,-0.0335,-0.0329,-0.023,-0.0211,-0.0147,-0.0096,-0.0078,-0.0079,-0.0025,0.0065,0.0062,0.0059,-0.0044,-0.0055,-0.0065,0,0,0,0,0,-0.054,-0.0539,-0.0525,-0.0516,-0.045,-0.0419,-0.0409,-0.0358,-0.0336,-0.0335,-0.028,-0.0214,-0.01,-0.0092,-0.007,-0.007,0.0066,0.0063,0.006,-0.004,-0.0053,-0.0064,0,0,0,0,0,0,-0.0577,-0.053,-0.0512,-0.0496,-0.0467,-0.0406,-0.0396,-0.0368,-0.0324,-0.0315,-0.0229,-0.0207,-0.0175,-0.0114,-0.0108,-0.0053,-0.0007,-0.0006,-0.009,-0.0101,-0.0111,-0.0109,-0.002,0,0,0,0,0,-0.0589,-0.0577,-0.0532,-0.0521,-0.051,-0.0459,-0.044,-0.0409,-0.0363,-0.0342,-0.028,-0.0218,-0.0173,-0.0132,-0.0085,-0.0045,0.002,-0.0034,-0.0045,-0.0053,-0.004,0.0023,0.002,0.0047,0.0047,0.0047,0,0,-0.0599,-0.0573,-0.0564,-0.0529,-0.05,-0.0489,-0.0444,-0.0423,-0.0412,-0.0327,-0.0297,-0.0254,-0.0177,-0.0145,-0.0123,-0.0089,-0.0029,-0.0057,-0.0065,-0.0046,0.002,0.0017,0.0015,0.0045,0.0046,0.0046,0,0,-0.0618,-0.0594,-0.0593,-0.0577,-0.0546,-0.0515,-0.0517,-0.0469,-0.0446,-0.0418,-0.0366,-0.0331,-0.0249,-0.0201,-0.0163,-0.0199,-0.0098,-0.0186,-0.0212,-0.0153,-0.0154,-0.0154,-0.0079,-0.0072,-0.0175,-0.0176,-0.0176,0,-0.0633,-0.0625,-0.059,-0.059,-0.0582,-0.0534,-0.0538,-0.051,-0.0457,-0.044,-0.0421,-0.033,-0.0272,-0.0225,-0.0243,-0.0218,-0.0163,-0.0172,-0.0165,-0.0163,-0.0161,-0.0085,-0.0075,-0.0181,-0.018,-0.018,-0.0179,0,-0.0651,-0.065,-0.0651,-0.0635,-0.0623,-0.062,-0.0584,-0.0569,-0.054,-0.0505,-0.0469,-0.0405,-0.0342,-0.0331,-0.0291,-0.0256,-0.0216,-0.0198,-0.0131,-0.017,-0.0087,-0.0075,-0.0189,-0.0187,-0.0185,-0.0184,0,0,-0.067,-0.0665,-0.0666,-0.0674,-0.065,-0.0642,-0.0632,-0.0605,-0.0588,-0.0548,-0.0521,-0.0466,-0.043,-0.0387,-0.034,-0.0285,-0.0237,-0.0239,-0.0233,-0.016,-0.009,-0.0061,-0.0044,-0.0218,-0.0217,-0.0216,-0.0039,0,-0.0696,-0.0719,-0.0702,-0.0721,-0.0732,-0.0697,-0.0688,-0.0657,-0.0619,-0.0583,-0.0522,-0.0478,-0.045,-0.042,-0.0371,-0.0269,-0.0209,-0.0285,-0.0065,-0.0057,-0.0024,-0.0031,0.0001,0.0161,-0.0026,-0.0024,-0.0022,0,-0.0719,-0.0733,-0.0764,-0.0769,-0.0768,-0.0768,-0.0744,-0.073,-0.0669,-0.0637,-0.0587,-0.0526,-0.0449,-0.0425,-0.026,-0.0309,-0.0209,-0.0128,-0.0119,-0.004,-0.0006,0.0171,0.0191,0.0298,-0.0002,-0.0004,-0.0005,0,-0.0758,-0.0774,-0.0805,-0.0808,-0.0803,-0.0805,-0.0795,-0.0748,-0.0725,-0.0665,-0.0625,-0.054,-0.0467,-0.0357,-0.0196,-0.0221,-0.0,-0.0009,0.0115,0.0119,0.0219,0.0229,0.0377,0.0111,0.0111,0.011,0.011,0,-0.0796,-0.0817,-0.0827,-0.0845,-0.0866,-0.0848,-0.0845,-0.0819,-0.0766,-0.0714,-0.0655,-0.0578,-0.0444,-0.0302,-0.0186,0.0013,0.0015,0.0124,0.0168,0.0179,0.0183,0.034,0.0378,0.0117,0.0116,0.0114,0.0113,0,-0.0834,-0.0842,-0.0878,-0.0888,-0.0888,-0.0906,-0.0881,-0.0868,-0.0812,-0.074,-0.0714,-0.0581,-0.0395,-0.0246,-0.0029,0.0053,0.0304,0.0293,0.0302,0.0342,0.0515,0.0545,0.0757,0.0838,0.0448,0.0449,0.0451,0,-0.0855,-0.088,-0.0912,-0.0929,-0.0936,-0.0948,-0.0944,-0.0903,-0.087,-0.0719,-0.0676,-0.049,-0.0332,-0.0029,0.0147,0.0363,0.0432,0.0506,0.045,0.0545,0.0611,0.0618,0.067,0.0549,0.0551,0.0553,0.0554,0,-0.0892,-0.0906,-0.0936,-0.0972,-0.0986,-0.099,-0.0972,-0.0925,-0.0834,-0.0706,-0.0518,-0.0379,-0.0139,0.0116,0.0356,0.0471,0.0583,0.0547,0.0656,0.0713,0.0726,0.0817,0.0419,0.057,0.0569,0.0568,0.0567,0.0566,-0.091,-0.0943,-0.0976,-0.1009,-0.1023,-0.0987,-0.0887,-0.0814,-0.0663,-0.0359,-0.0344,-0.0015,0.0104,0.0442,0.0575,0.0798,0.0749,0.0849,0.0885,0.0889,0.094,0.0571,0.0751,0.0751,0.075,0.075,0.0749,0,-0.0924,-0.096,-0.1,-0.1004,-0.0975,-0.0977,-0.0861,-0.0679,-0.0386,-0.0154,0.0096,0.0424,0.0639,0.0783,0.0991,0.1124,0.1151,0.1179,0.1205,0.1249,0.0949,0.0923,0.1135,0.1135,0.1135,0.1135,0.1135,0.1135,-0.0931,-0.0976,-0.1003,-0.0955,-0.0907,-0.0729,-0.0589,-0.0319,-0.0088,0.0408,0.0736,0.0891,0.0973,0.1171,0.1382,0.1415,0.1549,0.1524,0.1599,0.1386,0.1357,0.133,0.1314,0.1605,0.1606,0.1889,0.1892,0.1894]}],[{"header":{"parameterUnit":"m.s-1","parameterCategory":2,"la1":30.2991,"la2":30.254,"lo1":-89.0895,"lo2":-89.0444,"dy":0.0017,"dx":0.0017,"nx":28,"ny":28,"refTime":"2024-03-15T21:00:00:Z","depth":"2","parameterNumber":2,"parameterNumberName":"U-component_of_CURRENTS"},"data":[0,0,0,0,0,0,0,0,0,0,0,0,0,0,0,0,0,0,0,0,0,0,0,0,0,0,0,0,0,0,0,0,0,0,0,0,0,0,0,0,0,0,0,0,0,0,0,0,0,0,0,0,0,0,0,0,0,0,-0.1935,-0.1936,0,-0.1956,-0.1956,-0.1956,-0.1957,-0.1957,-0.1957,-0.1957,-0.197,-0.197,-0.1971,0,0,0,0,0,0,0,0,0,0,0,0,0,-0.1899,-0.19,-0.1935,-0.1936,-0.1936,-0.1956,-0.1956,-0.1956,-0.1957,-0.1957,-0.1957,-0.1957,-0.197,-0.197,-0.1971,0,0,0,0,0,0,0,0,0,0,0,0,0,-0.1914,-0.19,-0.1935,-0.1941,-0.1942,-0.1956,-0.1956,-0.1956,-0.1957,-0.1957,-0.1957,-0.1957,-0.197,-0.197,-0.1971,-0.1973,0,0,-0.1972,-0.1972,0,0,0,0,0,0,0,0,-0.1913,-0.1915,-0.194,-0.1941,-0.1942,-0.1956,-0.1948,-0.1962,-0.1957,-0.1949,-0.1957,-0.1957,-0.1966,-0.1967,-0.1967,-0.1974,-0.1974,-0.1972,-0.1973,-0.1973,-0.1973,0,0,0,0,0,0,0,-0.1912,-0.1914,-0.194,-0.194,-0.1942,-0.1944,-0.1946,-0.195,-0.1955,-0.1949,-0.195,-0.1957,-0.1967,-0.1967,-0.1968,-0.1975,-0.1972,-0.1973,-0.1973,-0.1973,-0.1956,-0.1955,0,0,0,0,0,0,-0.1915,-0.1913,-0.194,-0.1941,-0.193,-0.1945,-0.1946,-0.1949,-0.1955,-0.1957,-0.1957,-0.1957,-0.1966,-0.1967,-0.1968,-0.1964,-0.1973,-0.1973,-0.1973,-0.1957,-0.1956,-0.1955,0,0,0,0,0,0,-0.1914,-0.1917,-0.1939,-0.193,-0.1933,-0.1945,-0.1948,-0.195,-0.1957,-0.1961,-0.1962,-0.1964,-0.1966,-0.1967,-0.1966,-0.1965,-0.1973,-0.1974,-0.1958,-0.1957,-0.1956,-0.1961,0,0,0,0,0,0,-0.1913,-0.1916,-0.1919,-0.193,-0.1934,-0.1948,-0.1949,-0.195,-0.1962,-0.1963,-0.1968,-0.1969,-0.1966,-0.1965,-0.1967,-0.1966,-0.1974,-0.1959,-0.1957,-0.1956,-0.1962,-0.196,-0.1959,0,0,0,0,0,-0.1911,-0.1915,-0.1919,-0.1922,-0.1937,-0.1948,-0.195,-0.1957,-0.1963,-0.1964,-0.1962,-0.1969,-0.1957,-0.1965,-0.1967,-0.1966,-0.1959,-0.1958,-0.1956,-0.1962,-0.196,-0.1959,0,0,0,0,0,0,-0.1901,-0.1916,-0.192,-0.1928,-0.1939,-0.195,-0.1953,-0.1962,-0.1963,-0.1962,-0.1965,-0.1965,-0.196,-0.196,-0.197,-0.1954,-0.1957,-0.1956,-0.1961,-0.196,-0.1958,-0.1951,-0.1975,0,0,0,0,0,-0.1901,-0.1905,-0.1921,-0.1926,-0.1932,-0.1945,-0.1951,-0.1957,-0.1962,-0.1963,-0.1965,-0.1961,-0.1954,-0.1955,-0.1948,-0.1948,-0.1933,-0.1945,-0.1943,-0.1942,-0.1936,-0.1919,-0.1915,-0.195,-0.195,-0.195,0,0,-0.1899,-0.1908,-0.191,-0.1924,-0.1932,-0.1938,-0.1948,-0.1958,-0.1959,-0.1964,-0.1961,-0.1958,-0.1951,-0.1942,-0.1941,-0.1945,-0.192,-0.194,-0.194,-0.1933,-0.1917,-0.1913,-0.191,-0.1949,-0.1949,-0.1949,0,0,-0.1892,-0.1904,-0.1903,-0.1913,-0.1928,-0.1936,-0.1942,-0.1955,-0.1955,-0.1956,-0.1952,-0.1944,-0.1945,-0.1931,-0.1927,-0.1913,-0.1911,-0.1916,-0.191,-0.1894,-0.1892,-0.1889,-0.1852,-0.1846,-0.1919,-0.1919,-0.1919,0,-0.1889,-0.1891,-0.1905,-0.1908,-0.1917,-0.1936,-0.1939,-0.1943,-0.1952,-0.1952,-0.1954,-0.194,-0.1933,-0.192,-0.1909,-0.191,-0.1898,-0.1922,-0.1894,-0.1891,-0.1888,-0.1851,-0.1844,-0.1919,-0.1919,-0.1919,-0.1919,0,-0.1878,-0.1885,-0.1887,-0.1895,-0.1906,-0.1913,-0.1925,-0.1931,-0.1939,-0.1942,-0.1934,-0.1922,-0.1914,-0.191,-0.1905,-0.1885,-0.188,-0.1893,-0.1902,-0.1885,-0.1846,-0.1839,-0.1919,-0.1919,-0.1919,-0.1919,0,0,-0.1849,-0.1874,-0.1873,-0.1881,-0.1901,-0.1908,-0.1913,-0.1921,-0.1927,-0.1925,-0.1924,-0.1901,-0.1903,-0.1895,-0.1891,-0.1875,-0.1837,-0.1879,-0.1878,-0.1847,-0.1789,-0.1697,-0.1681,-0.1856,-0.1856,-0.1855,-0.1765,0,-0.1834,-0.1841,-0.1856,-0.1863,-0.187,-0.1893,-0.1898,-0.1909,-0.1917,-0.1921,-0.1909,-0.1904,-0.1896,-0.1896,-0.1876,-0.1855,-0.1821,-0.1859,-0.1804,-0.1801,-0.1728,-0.1671,-0.1569,-0.1473,-0.1758,-0.1757,-0.1756,0,-0.1806,-0.182,-0.1825,-0.1855,-0.1859,-0.1866,-0.1885,-0.1893,-0.1904,-0.1911,-0.1909,-0.1909,-0.1882,-0.1881,-0.1821,-0.1852,-0.181,-0.1788,-0.1784,-0.1692,-0.1697,-0.1537,-0.145,-0.1744,-0.1745,-0.1746,-0.1747,0,-0.1769,-0.1794,-0.1799,-0.1808,-0.1843,-0.1848,-0.1866,-0.1886,-0.1891,-0.1906,-0.1908,-0.1895,-0.1872,-0.1842,-0.178,-0.181,-0.1706,-0.1743,-0.1613,-0.1606,-0.1501,-0.1486,-0.168,-0.1681,-0.1681,-0.1681,-0.1681,0,-0.1739,-0.1742,-0.1784,-0.1786,-0.1794,-0.1829,-0.1836,-0.1856,-0.1877,-0.1867,-0.1896,-0.1872,-0.1862,-0.1807,-0.177,-0.1648,-0.169,-0.1584,-0.1569,-0.1497,-0.1483,-0.1713,-0.1718,-0.1678,-0.1678,-0.1679,-0.168,0,-0.1684,-0.1715,-0.1722,-0.1761,-0.1774,-0.1777,-0.1812,-0.1814,-0.1849,-0.1836,-0.1838,-0.1839,-0.1763,-0.1724,-0.1652,-0.1604,-0.1525,-0.1468,-0.1366,-0.134,-0.1443,-0.145,-0.1328,-0.1324,-0.132,-0.1318,-0.1315,0,-0.1652,-0.1651,-0.1689,-0.1691,-0.1705,-0.1724,-0.173,-0.1783,-0.1785,-0.1795,-0.1775,-0.1722,-0.1647,-0.1508,-0.1414,-0.1305,-0.1387,-0.1158,-0.1187,-0.1405,-0.1404,-0.1416,-0.1427,-0.1048,-0.1044,-0.104,-0.1037,0,-0.1582,-0.1598,-0.1607,-0.1611,-0.162,-0.1633,-0.1652,-0.1651,-0.1693,-0.1683,-0.1632,-0.158,-0.1441,-0.1275,-0.1141,-0.1077,-0.1177,-0.1078,-0.1319,-0.1154,-0.1134,-0.1136,-0.1157,-0.1005,-0.1008,-0.1011,-0.1012,-0.1014,-0.1518,-0.1506,-0.1514,-0.151,-0.1525,-0.1516,-0.1473,-0.1499,-0.1478,-0.1416,-0.145,-0.1322,-0.1261,-0.0991,-0.0895,-0.082,-0.0912,-0.0889,-0.0903,-0.0921,-0.0905,-0.088,-0.0699,-0.0701,-0.0702,-0.0703,-0.0704,0,-0.1419,-0.1414,-0.1409,-0.1388,-0.1348,-0.14,-0.1388,-0.1321,-0.124,-0.1222,-0.1149,-0.0974,-0.084,-0.0787,-0.0614,-0.0564,-0.0594,-0.0545,-0.0607,-0.0637,-0.0665,-0.0641,-0.0362,-0.0361,-0.036,-0.036,0,0,-0.1363,-0.132,-0.1317,-0.1212,-0.1191,-0.1091,-0.1052,-0.0989,-0.0949,-0.0845,-0.0776,-0.0789,-0.0774,-0.0586,-0.0519,-0.0419,-0.0532,-0.0387,-0.0659,-0.0763,-0.079,-0.0852,-0.0846,0,0,0,0,0]},{"header":{"parameterUnit":"m.s-1","parameterCategory":2,"la1":30.2991,"la2":30.254,"lo1":-89.0895,"lo2":-89.0444,"dy":0.0017,"dx":0.0017,"nx":28,"ny":28,"refTime":"2024-03-15T21:00:00:Z","depth":"2","parameterNumber":3,"parameterNumberName":"V-component_of_CURRENTS"},"data":[0,0,0,0,0,0,0,0,0,0,0,0,0,0,0,0,0,0,0,0,0,0,0,0,0,0,0,0,0,0,0,0,0,0,0,0,0,0,0,0,0,0,0,0,0,0,0,0,0,0,0,0,0,0,0,0,0,0,-0.0456,-0.0456,0,-0.0393,-0.0393,-0.0392,-0.0357,-0.0356,-0.0356,-0.0356,-0.0262,-0.026,-0.0258,0,0,0,0,0,0,0,0,0,0,0,0,0,-0.0516,-0.0516,-0.0456,-0.0456,-0.0455,-0.0394,-0.0393,-0.0392,-0.0357,-0.0356,-0.0356,-0.0356,-0.0263,-0.026,-0.0258,0,0,0,0,0,0,0,0,0,0,0,0,0,-0.0476,-0.0515,-0.0457,-0.0429,-0.0426,-0.0394,-0.0393,-0.0392,-0.0357,-0.0356,-0.0356,-0.0356,-0.0264,-0.0261,-0.0257,-0.0241,0,0,-0.0247,-0.0245,0,0,0,0,0,0,0,0,-0.0479,-0.0474,-0.0434,-0.0431,-0.0427,-0.0382,-0.0379,-0.034,-0.0357,-0.0384,-0.0356,-0.0356,-0.0299,-0.0293,-0.0283,-0.0237,-0.0233,-0.0246,-0.0244,-0.0243,-0.0242,0,0,0,0,0,0,0,-0.0481,-0.0476,-0.0432,-0.0433,-0.0429,-0.041,-0.0404,-0.0372,-0.0344,-0.0381,-0.0378,-0.037,-0.0297,-0.0287,-0.028,-0.0231,-0.0246,-0.0243,-0.0241,-0.024,-0.0149,-0.0149,0,0,0,0,0,0,-0.049,-0.0479,-0.0434,-0.043,-0.0452,-0.0409,-0.0403,-0.0397,-0.0345,-0.0336,-0.0371,-0.0369,-0.0293,-0.0285,-0.0277,-0.0249,-0.0243,-0.0239,-0.0237,-0.0149,-0.0149,-0.0148,0,0,0,0,0,0,-0.0491,-0.0486,-0.0437,-0.0453,-0.0445,-0.0408,-0.0403,-0.0396,-0.0385,-0.0337,-0.0328,-0.0365,-0.0292,-0.0282,-0.025,-0.0246,-0.0238,-0.0235,-0.015,-0.0149,-0.0149,-0.0197,0,0,0,0,0,0,-0.0493,-0.0487,-0.0488,-0.0453,-0.0444,-0.0421,-0.0403,-0.0395,-0.038,-0.0377,-0.0329,-0.032,-0.0291,-0.0256,-0.0247,-0.0241,-0.0232,-0.015,-0.0149,-0.0149,-0.0196,-0.0198,-0.02,0,0,0,0,0,-0.0496,-0.0496,-0.0489,-0.0483,-0.0446,-0.0421,-0.0415,-0.0389,-0.038,-0.0377,-0.0345,-0.0322,-0.0245,-0.0253,-0.0243,-0.0235,-0.015,-0.015,-0.0149,-0.0195,-0.0198,-0.02,0,0,0,0,0,0,-0.0521,-0.0492,-0.0483,-0.0474,-0.0452,-0.0415,-0.0409,-0.0392,-0.0365,-0.0363,-0.032,-0.0309,-0.028,-0.025,-0.026,-0.0206,-0.0193,-0.019,-0.0231,-0.0233,-0.0236,-0.0243,-0.0229,0,0,0,0,0,-0.0528,-0.0522,-0.0491,-0.0485,-0.0477,-0.0445,-0.0432,-0.0415,-0.0385,-0.0374,-0.0341,-0.0303,-0.0269,-0.0247,-0.0215,-0.0186,-0.0149,-0.0172,-0.0175,-0.0177,-0.0175,-0.0121,-0.0119,-0.0146,-0.0146,-0.0146,0,0,-0.0535,-0.0519,-0.0515,-0.0491,-0.0472,-0.0462,-0.0437,-0.0421,-0.041,-0.0367,-0.0345,-0.0313,-0.0264,-0.0235,-0.0218,-0.0208,-0.0149,-0.0176,-0.0178,-0.0175,-0.012,-0.0118,-0.0115,-0.0146,-0.0146,-0.0146,0,0,-0.0547,-0.0535,-0.0534,-0.052,-0.0496,-0.0476,-0.0474,-0.0441,-0.0425,-0.04,-0.0366,-0.0331,-0.0283,-0.0244,-0.0218,-0.0211,-0.0168,-0.0202,-0.0213,-0.0162,-0.0159,-0.0156,-0.0108,-0.0101,-0.0197,-0.0197,-0.0197,0,-0.0558,-0.0554,-0.053,-0.0528,-0.0518,-0.0486,-0.0484,-0.0462,-0.0423,-0.0408,-0.04,-0.0323,-0.0284,-0.0237,-0.0235,-0.0216,-0.0183,-0.021,-0.0165,-0.0162,-0.0158,-0.0109,-0.0101,-0.02,-0.0199,-0.0199,-0.0199,0,-0.0568,-0.0567,-0.0566,-0.0553,-0.054,-0.0534,-0.0503,-0.0488,-0.0467,-0.0439,-0.0397,-0.0346,-0.0298,-0.0279,-0.0254,-0.0208,-0.0193,-0.0181,-0.0162,-0.0158,-0.0107,-0.0097,-0.0203,-0.0202,-0.0201,-0.0201,0,0,-0.0586,-0.0577,-0.0577,-0.058,-0.0555,-0.0547,-0.053,-0.0502,-0.0488,-0.0448,-0.0423,-0.0361,-0.0334,-0.0302,-0.0263,-0.0215,-0.0162,-0.0191,-0.0188,-0.0151,-0.005,-0.0036,-0.0024,-0.0146,-0.0144,-0.0143,-0.0026,0,-0.0602,-0.0614,-0.0597,-0.0603,-0.0608,-0.0576,-0.0563,-0.0533,-0.0501,-0.0469,-0.0409,-0.0371,-0.0342,-0.0319,-0.0269,-0.019,-0.0138,-0.0195,-0.0053,-0.0048,-0.0042,-0.0012,-0.0022,0.0083,-0.0015,-0.0014,-0.0013,0,-0.0618,-0.0626,-0.0641,-0.0636,-0.0633,-0.0629,-0.0605,-0.0588,-0.0532,-0.0506,-0.0456,-0.0409,-0.0334,-0.0314,-0.0175,-0.0216,-0.0137,-0.0075,-0.0068,-0.0031,-0.0015,0.0065,0.0105,0.0005,0.0003,0.0002,0.0001,0,-0.0652,-0.0654,-0.0671,-0.0671,-0.0658,-0.0656,-0.0645,-0.0602,-0.0584,-0.0529,-0.0503,-0.0419,-0.0365,-0.0266,-0.014,-0.0155,0.0015,0.0014,0.0104,0.0106,0.014,0.0142,0.0119,0.0118,0.0118,0.0118,0.0118,0,-0.0679,-0.0691,-0.0692,-0.0704,-0.0719,-0.0694,-0.0694,-0.0669,-0.0625,-0.0593,-0.0528,-0.0475,-0.0349,-0.0239,-0.0138,0.0017,0.0023,0.0113,0.0142,0.0123,0.0122,0.0085,0.0079,0.0122,0.0121,0.012,0.012,0,-0.0711,-0.0712,-0.0736,-0.0738,-0.0739,-0.0753,-0.0736,-0.0729,-0.0682,-0.0637,-0.0618,-0.0502,-0.0356,-0.0223,-0.0044,0.0031,0.0169,0.0224,0.0189,0.0211,0.0224,0.0214,0.0334,0.0335,0.0337,0.0338,0.0339,0,-0.0728,-0.0746,-0.0771,-0.0789,-0.0792,-0.0803,-0.0805,-0.0768,-0.0749,-0.0642,-0.0616,-0.0471,-0.0351,-0.0098,0.0064,0.0248,0.0236,0.0331,0.0302,0.0232,0.0248,0.0237,0.0226,0.0333,0.0334,0.0335,0.0335,0,-0.0761,-0.0773,-0.0797,-0.0835,-0.0853,-0.0866,-0.0859,-0.0847,-0.078,-0.0721,-0.0599,-0.0493,-0.0241,-0.0033,0.0186,0.0283,0.0293,0.035,0.0313,0.0267,0.0238,0.0251,0.024,0.0341,0.034,0.034,0.034,0.0339,-0.0783,-0.0814,-0.0845,-0.0878,-0.0903,-0.0912,-0.0911,-0.0875,-0.0828,-0.071,-0.0599,-0.0423,-0.0214,0.0102,0.0267,0.0394,0.0383,0.0406,0.0402,0.0398,0.0363,0.0337,0.0453,0.0453,0.0453,0.0453,0.0453,0,-0.0806,-0.0838,-0.0878,-0.0921,-0.095,-0.0949,-0.0931,-0.0899,-0.0829,-0.0702,-0.0568,-0.0321,-0.0086,0.0114,0.0338,0.0472,0.0452,0.0475,0.0431,0.0425,0.0419,0.0383,0.048,0.0481,0.0481,0.0481,0,0,-0.082,-0.0865,-0.0887,-0.0944,-0.0971,-0.098,-0.0964,-0.0891,-0.0794,-0.0645,-0.0514,-0.0342,-0.008,0.0083,0.0264,0.038,0.0357,0.038,0.0345,0.0265,0.0258,0.0369,0.0306,0,0,0,0,0]}],[{"header":{"parameterUnit":"m.s-1","parameterCategory":2,"la1":30.2991,"la2":30.254,"lo1":-89.0895,"lo2":-89.0444,"dy":0.0017,"dx":0.0017,"nx":28,"ny":28,"refTime":"2024-03-15T21:00:00:Z","depth":"4","parameterNumber":2,"parameterNumberName":"U-component_of_CURRENTS"},"data":[0,0,0,0,0,0,0,0,0,0,0,0,0,0,0,0,0,0,0,0,0,0,0,0,0,0,0,0,0,0,0,0,0,0,0,0,0,0,0,0,0,0,0,0,0,0,0,0,0,0,0,0,0,0,0,0,0,0,-0.1322,-0.1323,0,-0.1372,-0.1372,-0.1373,-0.1406,-0.1406,-0.1407,-0.1407,-0.1455,-0.1456,-0.1456,0,0,0,0,0,0,0,0,0,0,0,0,0,-0.1256,-0.1257,-0.1322,-0.1323,-0.1324,-0.1372,-0.1372,-0.1373,-0.1406,-0.1406,-0.1407,-0.1407,-0.1454,-0.1455,-0.1456,0,0,0,0,0,0,0,0,0,0,0,0,0,-0.129,-0.1257,-0.1322,-0.1348,-0.1351,-0.1372,-0.1372,-0.1373,-0.1405,-0.1406,-0.1407,-0.1408,-0.1454,-0.1455,-0.1457,-0.1449,0,0,-0.146,-0.1461,0,0,0,0,0,0,0,0,-0.1288,-0.1292,-0.1343,-0.1346,-0.135,-0.1386,-0.1367,-0.1399,-0.1405,-0.1382,-0.1407,-0.1408,-0.1433,-0.1436,-0.144,-0.1452,-0.1454,-0.146,-0.1461,-0.1462,-0.1462,0,0,0,0,0,0,0,-0.1286,-0.129,-0.1339,-0.1344,-0.1348,-0.1358,-0.1363,-0.1373,-0.14,-0.1384,-0.1387,-0.1397,-0.1434,-0.1438,-0.1441,-0.1454,-0.146,-0.1461,-0.1462,-0.1463,-0.1509,-0.151,0,0,0,0,0,0,-0.1285,-0.1288,-0.1337,-0.1341,-0.1324,-0.1359,-0.1365,-0.1371,-0.14,-0.1406,-0.1396,-0.1398,-0.1436,-0.1439,-0.1443,-0.1491,-0.1462,-0.1463,-0.1464,-0.1509,-0.1509,-0.151,0,0,0,0,0,0,-0.1283,-0.1288,-0.1335,-0.1318,-0.1325,-0.1359,-0.1366,-0.1372,-0.1404,-0.141,-0.1416,-0.1427,-0.1437,-0.1441,-0.1474,-0.1492,-0.1463,-0.1464,-0.1508,-0.1509,-0.151,-0.1553,0,0,0,0,0,0,-0.1281,-0.1287,-0.1303,-0.1318,-0.1326,-0.1366,-0.1366,-0.1372,-0.1409,-0.1413,-0.1438,-0.1441,-0.1437,-0.1472,-0.1475,-0.1493,-0.1465,-0.1508,-0.1509,-0.1509,-0.1551,-0.1556,-0.1559,0,0,0,0,0,-0.1278,-0.1294,-0.1303,-0.131,-0.1342,-0.1367,-0.1372,-0.1396,-0.141,-0.1427,-0.1445,-0.1442,-0.148,-0.1474,-0.1477,-0.1496,-0.1507,-0.1508,-0.1509,-0.155,-0.1555,-0.1559,0,0,0,0,0,0,-0.1277,-0.13,-0.1309,-0.1333,-0.1357,-0.1374,-0.1398,-0.1412,-0.144,-0.1451,-0.1454,-0.1459,-0.1491,-0.1487,-0.1481,-0.151,-0.149,-0.1492,-0.152,-0.1525,-0.1528,-0.1511,-0.1466,0,0,0,0,0,-0.1282,-0.1301,-0.1322,-0.1345,-0.1359,-0.1383,-0.1402,-0.1418,-0.144,-0.1454,-0.1471,-0.1484,-0.1493,-0.1506,-0.1513,-0.1535,-0.1508,-0.1546,-0.155,-0.1553,-0.1541,-0.1527,-0.1529,-0.1514,-0.1514,-0.1514,0,0,-0.129,-0.1305,-0.1318,-0.1347,-0.1368,-0.1388,-0.1396,-0.1432,-0.1451,-0.1454,-0.1493,-0.1503,-0.1502,-0.1524,-0.1537,-0.1528,-0.1542,-0.1555,-0.1558,-0.1543,-0.1529,-0.153,-0.1531,-0.1514,-0.1514,-0.1514,0,0,-0.1305,-0.1328,-0.1345,-0.1365,-0.1402,-0.1414,-0.1431,-0.1462,-0.1482,-0.1516,-0.1518,-0.1537,-0.1563,-0.1558,-0.1558,-0.1586,-0.1563,-0.1597,-0.1607,-0.1595,-0.1596,-0.1596,-0.1558,-0.1555,-0.16,-0.16,-0.16,0,-0.1316,-0.1334,-0.1356,-0.1376,-0.1396,-0.1428,-0.1448,-0.1469,-0.1509,-0.1522,-0.1536,-0.1565,-0.157,-0.1579,-0.1588,-0.1595,-0.1578,-0.1592,-0.16,-0.16,-0.16,-0.156,-0.1556,-0.1602,-0.1602,-0.1602,-0.1601,0,-0.133,-0.1356,-0.1371,-0.1401,-0.1426,-0.1454,-0.148,-0.1511,-0.1541,-0.1555,-0.1588,-0.1596,-0.1607,-0.1617,-0.1613,-0.1617,-0.1601,-0.1607,-0.1588,-0.1604,-0.1561,-0.1556,-0.1605,-0.1605,-0.1604,-0.1603,0,0,-0.1321,-0.1371,-0.1378,-0.1397,-0.1442,-0.1461,-0.1496,-0.1527,-0.1549,-0.1586,-0.1606,-0.1623,-0.1632,-0.163,-0.1633,-0.1626,-0.1611,-0.162,-0.1619,-0.1581,-0.1569,-0.1461,-0.1445,-0.1628,-0.1628,-0.1627,-0.1538,0,-0.1326,-0.1362,-0.1386,-0.1426,-0.1446,-0.1484,-0.151,-0.1544,-0.1575,-0.1602,-0.1613,-0.1634,-0.1636,-0.165,-0.1642,-0.1623,-0.16,-0.1633,-0.1559,-0.1556,-0.1458,-0.1436,-0.1626,-0.1534,-0.1532,-0.1531,-0.1531,0,-0.132,-0.1348,-0.1385,-0.1435,-0.1448,-0.1478,-0.1525,-0.1553,-0.159,-0.1614,-0.1635,-0.1647,-0.1644,-0.1647,-0.1605,-0.1631,-0.1596,-0.1575,-0.1571,-0.1447,-0.1438,-0.1515,-0.1521,-0.1522,-0.1522,-0.1523,-0.1524,0,-0.1284,-0.1342,-0.1372,-0.1391,-0.1452,-0.1479,-0.1514,-0.1559,-0.1579,-0.1621,-0.1633,-0.1644,-0.1638,-0.1617,-0.157,-0.1595,-0.1508,-0.1536,-0.1397,-0.1389,-0.1496,-0.1497,-0.1488,-0.1488,-0.1488,-0.1489,-0.1489,0,-0.126,-0.1288,-0.1364,-0.138,-0.1419,-0.1469,-0.1507,-0.1543,-0.1584,-0.1585,-0.1635,-0.1619,-0.1632,-0.1588,-0.1559,-0.1441,-0.1493,-0.1374,-0.1353,-0.1516,-0.152,-0.1492,-0.1493,-0.1485,-0.1486,-0.1487,-0.1487,0,-0.1207,-0.126,-0.1298,-0.1374,-0.1402,-0.1428,-0.1498,-0.1511,-0.1566,-0.1565,-0.1576,-0.159,-0.1524,-0.1506,-0.1447,-0.1395,-0.132,-0.1264,-0.1408,-0.1402,-0.1214,-0.1219,-0.1104,-0.1099,-0.1095,-0.1092,-0.1089,0,-0.1177,-0.1194,-0.1283,-0.1305,-0.1343,-0.1395,-0.1419,-0.1491,-0.1496,-0.152,-0.1497,-0.1464,-0.1451,-0.1268,-0.1279,-0.1191,-0.1179,-0.1136,-0.1198,-0.1179,-0.1172,-0.1184,-0.1194,-0.1083,-0.1082,-0.108,-0.1079,0,-0.1114,-0.1159,-0.1191,-0.1236,-0.1273,-0.1305,-0.1345,-0.1338,-0.1387,-0.1453,-0.1366,-0.1315,-0.1226,-0.1174,-0.1098,-0.1051,-0.1172,-0.1095,-0.1104,-0.1163,-0.1153,-0.1152,-0.1167,-0.1066,-0.1068,-0.1069,-0.107,0,-0.1065,-0.1071,-0.1116,-0.1141,-0.1186,-0.1179,-0.1222,-0.1208,-0.1221,-0.1257,-0.1216,-0.1183,-0.1198,-0.1096,-0.1035,-0.0968,-0.0966,-0.095,-0.0967,-0.0982,-0.0985,-0.0958,-0.0768,0,0,0,0,0,-0.1004,-0.0994,-0.1013,-0.1022,-0.106,-0.1079,-0.1146,-0.1188,-0.1239,-0.1139,-0.1175,-0.1088,-0.0988,-0.0984,-0.0886,-0.098,-0.0973,-0.0864,-0.0967,-0.099,-0.1005,-0.1021,0,0,0,0,0,0,-0.096,-0.0975,-0.0973,-0.0912,-0.0892,-0.0911,-0.0947,-0.0991,-0.0953,-0.1012,-0.0962,-0.101,-0.0931,-0.1001,-0.0852,-0.0849,-0.089,-0.0861,-0.0858,-0.0981,-0.0995,-0.1008,-0.1029,0,0,0,0,0]},{"header":{"parameterUnit":"m.s-1","parameterCategory":2,"la1":30.2991,"la2":30.254,"lo1":-89.0895,"lo2":-89.0444,"dy":0.0017,"dx":0.0017,"nx":28,"ny":28,"refTime":"2024-03-15T21:00:00:Z","depth":"4","parameterNumber":3,"parameterNumberName":"V-component_of_CURRENTS"},"data":[0,0,0,0,0,0,0,0,0,0,0,0,0,0,0,0,0,0,0,0,0,0,0,0,0,0,0,0,0,0,0,0,0,0,0,0,0,0,0,0,0,0,0,0,0,0,0,0,0,0,0,0,0,0,0,0,0,0,-0.0346,-0.0345,0,-0.0314,-0.0313,-0.0313,-0.03,-0.03,-0.03,-0.03,-0.0255,-0.0254,-0.0252,0,0,0,0,0,0,0,0,0,0,0,0,0,-0.037,-0.037,-0.0346,-0.0345,-0.0345,-0.0314,-0.0313,-0.0313,-0.03,-0.03,-0.03,-0.03,-0.0255,-0.0254,-0.0252,0,0,0,0,0,0,0,0,0,0,0,0,0,-0.0351,-0.037,-0.0346,-0.0335,-0.0333,-0.0314,-0.0313,-0.0313,-0.03,-0.03,-0.03,-0.03,-0.0256,-0.0254,-0.0252,-0.0239,0,0,-0.0246,-0.0246,0,0,0,0,0,0,0,0,-0.0352,-0.035,-0.0337,-0.0335,-0.0334,-0.0311,-0.0305,-0.0287,-0.03,-0.0313,-0.03,-0.03,-0.0272,-0.0269,-0.0263,-0.0237,-0.0235,-0.0246,-0.0245,-0.0244,-0.0244,0,0,0,0,0,0,0,-0.0354,-0.0351,-0.0333,-0.0336,-0.0334,-0.0322,-0.032,-0.0302,-0.0292,-0.0312,-0.0311,-0.0306,-0.0271,-0.0265,-0.0262,-0.0234,-0.0246,-0.0245,-0.0243,-0.0243,-0.0179,-0.0178,0,0,0,0,0,0,-0.0358,-0.0353,-0.0334,-0.0332,-0.0343,-0.0322,-0.0319,-0.0318,-0.0293,-0.0289,-0.0306,-0.0306,-0.0268,-0.0264,-0.026,-0.0239,-0.0244,-0.0242,-0.0241,-0.018,-0.0179,-0.0178,0,0,0,0,0,0,-0.0359,-0.0357,-0.0336,-0.0341,-0.0338,-0.0321,-0.032,-0.0317,-0.0315,-0.0289,-0.0285,-0.0307,-0.0268,-0.0263,-0.0246,-0.0237,-0.0242,-0.024,-0.018,-0.0179,-0.0179,-0.0199,0,0,0,0,0,0,-0.036,-0.0358,-0.0363,-0.0342,-0.0338,-0.0329,-0.032,-0.0317,-0.0312,-0.0311,-0.0288,-0.0284,-0.0268,-0.0249,-0.0244,-0.0235,-0.0238,-0.0181,-0.018,-0.0179,-0.0199,-0.0199,-0.0199,0,0,0,0,0,-0.0361,-0.0365,-0.0363,-0.0361,-0.0344,-0.0329,-0.0326,-0.0314,-0.0312,-0.0312,-0.0295,-0.0285,-0.0238,-0.0247,-0.0241,-0.0232,-0.0181,-0.018,-0.0179,-0.0199,-0.0199,-0.0199,0,0,0,0,0,0,-0.0377,-0.0364,-0.0361,-0.0361,-0.0349,-0.0327,-0.0327,-0.0318,-0.0304,-0.0305,-0.0282,-0.0276,-0.0257,-0.0241,-0.0251,-0.0208,-0.0206,-0.0204,-0.0223,-0.0223,-0.0223,-0.0228,-0.0237,0,0,0,0,0,-0.0384,-0.0385,-0.0367,-0.0369,-0.0365,-0.0347,-0.0342,-0.0333,-0.0316,-0.0311,-0.0294,-0.0271,-0.0246,-0.0234,-0.0214,-0.0193,-0.0171,-0.018,-0.018,-0.0181,-0.0179,-0.0135,-0.0131,-0.0174,-0.0174,-0.0174,0,0,-0.0391,-0.0384,-0.0385,-0.0373,-0.0364,-0.0357,-0.0344,-0.0338,-0.0329,-0.0308,-0.0296,-0.0275,-0.0242,-0.0219,-0.0208,-0.0204,-0.0158,-0.0179,-0.0179,-0.0178,-0.0133,-0.0129,-0.0126,-0.0173,-0.0173,-0.0173,0,0,-0.04,-0.04,-0.0402,-0.0394,-0.0382,-0.0369,-0.0369,-0.035,-0.0341,-0.0326,-0.0304,-0.0277,-0.025,-0.0216,-0.0196,-0.0182,-0.0162,-0.0178,-0.0178,-0.0135,-0.0131,-0.0128,-0.0103,-0.0096,-0.0174,-0.0174,-0.0174,0,-0.041,-0.041,-0.04,-0.0398,-0.0393,-0.0376,-0.0374,-0.036,-0.0337,-0.0326,-0.0327,-0.027,-0.0243,-0.0199,-0.0192,-0.0181,-0.0163,-0.0184,-0.0136,-0.0132,-0.0128,-0.0102,-0.0095,-0.0175,-0.0175,-0.0175,-0.0175,0,-0.0415,-0.0418,-0.0419,-0.0412,-0.0404,-0.0402,-0.038,-0.0372,-0.0362,-0.0342,-0.031,-0.0272,-0.0237,-0.0219,-0.0202,-0.0156,-0.0156,-0.0145,-0.0139,-0.0125,-0.0099,-0.0091,-0.0176,-0.0176,-0.0176,-0.0175,0,0,-0.0428,-0.0424,-0.0426,-0.0429,-0.0413,-0.0409,-0.0394,-0.0372,-0.0364,-0.0337,-0.0317,-0.0263,-0.0246,-0.0222,-0.0191,-0.015,-0.0105,-0.0139,-0.0137,-0.0121,-0.0025,-0.0038,-0.0031,-0.009,-0.0089,-0.0088,-0.0022,0,-0.0436,-0.0444,-0.0433,-0.0438,-0.044,-0.0422,-0.041,-0.0389,-0.0369,-0.0348,-0.0297,-0.0271,-0.0245,-0.0232,-0.0184,-0.0129,-0.0085,-0.0125,-0.0036,-0.0034,-0.0052,-0.0023,-0.0083,-0.0016,-0.0015,-0.0013,-0.0012,0,-0.0442,-0.0448,-0.0459,-0.0457,-0.0456,-0.0456,-0.0441,-0.0428,-0.0387,-0.0372,-0.0332,-0.0299,-0.0235,-0.0219,-0.0111,-0.0142,-0.0084,-0.0039,-0.0035,-0.0034,-0.0032,-0.003,0.0002,0.0001,-0.0,-0.0001,-0.0002,0,-0.0461,-0.0464,-0.0478,-0.0478,-0.0471,-0.0473,-0.0469,-0.044,-0.0431,-0.0391,-0.038,-0.0306,-0.0272,-0.0189,-0.0098,-0.0104,0.0016,0.0022,0.0068,0.0067,0.0067,0.0062,0.0109,0.0109,0.0108,0.0108,0.0108,0,-0.047,-0.0482,-0.0494,-0.0503,-0.0521,-0.0504,-0.0513,-0.0496,-0.0469,-0.0454,-0.04,-0.0367,-0.0262,-0.0184,-0.0101,0.0002,0.0018,0.0074,0.009,0.0055,0.0049,0.0071,0.0066,0.0111,0.011,0.011,0.0109,0,-0.0485,-0.0492,-0.0515,-0.0527,-0.0534,-0.055,-0.0555,-0.0556,-0.0527,-0.0506,-0.0495,-0.0408,-0.0304,-0.02,-0.006,-0.0006,0.0095,0.0132,0.0076,0.0086,0.0117,0.011,0.0187,0.0187,0.0187,0.0187,0.0187,0,-0.049,-0.0505,-0.0545,-0.0569,-0.0579,-0.0601,-0.0613,-0.0593,-0.0587,-0.0523,-0.0509,-0.0411,-0.0342,-0.0157,-0.0052,0.0098,0.0121,0.0159,0.0152,0.0121,0.0128,0.0121,0.0114,0.0188,0.0188,0.0188,0.0188,0,-0.0502,-0.0526,-0.055,-0.0603,-0.0633,-0.0658,-0.0669,-0.0663,-0.0624,-0.0601,-0.0503,-0.0402,-0.0284,-0.0147,-0.0036,0.0074,0.0123,0.0161,0.0162,0.0155,0.0123,0.0129,0.0121,0.0188,0.0188,0.0188,0.0188,0,-0.0518,-0.0546,-0.0587,-0.0628,-0.0674,-0.0696,-0.0698,-0.0667,-0.0648,-0.0563,-0.0529,-0.0393,-0.0311,-0.0158,-0.0052,0.0047,0.0073,0.0094,0.0098,0.0098,0.0049,-0.0006,0.0041,0,0,0,0,0,-0.0526,-0.0559,-0.0604,-0.0654,-0.07,-0.0719,-0.0723,-0.0712,-0.0669,-0.06,-0.0557,-0.0438,-0.0262,-0.0184,-0.0084,-0.0063,0.0071,0.0053,0.0092,0.0192,0.0191,0.0147,0,0,0,0,0,0,-0.0534,-0.0582,-0.0604,-0.0663,-0.0697,-0.074,-0.0741,-0.0712,-0.0659,-0.06,-0.0499,-0.0433,-0.0261,-0.0318,-0.0088,-0.0059,-0.0025,0.014,0.0141,0.0193,0.0192,0.0191,0.0146,0,0,0,0,0]}]]